Flag for Cabo Verde Weather past 2 weeks in Santa Maria, Cabo Verde

Now
70 °F

Passing clouds.


Feels Like: 70 °F
Forecast: 70 / 80 °F
Wind: 12 mph from Northeast

Location: Sal

Current Time: Dec 19, 2014 at 12:49:38 AM

Latest Report: Dec 19, 2014 at 12:00 AM


Visibility: N/A

Pressure: 30.07 "Hg

Humidity: 78%

Dew point: 63 °F

Location of Santa MariaLocation

Historic Weather in Santa Maria — Graph

°F

Santa Maria temperature yesterday

Maximum temperature yesterday: 79 °F (at 2:00 PM)
Minimum temperature yesterday: 66 °F (at 6:00 AM)
Average temperature yesterday: 72 °F

Past Weeks' High & Low Weather Summary

 TemperatureHumidityPressure
High84 °F (Dec 9, 1:00 PM)100% (Dec 9, 7:00 AM)30.15 "Hg (Dec 9, 7:00 AM)
Low66 °F (Dec 18, 6:00 AM)51% (Dec 9, 2:00 PM)29.86 "Hg (Dec 8, 5:00 PM)
Average74 °F70%30.00 "Hg
* Reported Dec 3 11:00 PM — Dec 18 11:00 PM, Santa Maria, Weather by CustomWeather, © 2014

Note: Actual official high and low records may vary slightly from our data, if they occured in-between our weather recording intervals... More about our weather records

Advertising

Santa Maria weather history for previous 24 hours

 ConditionsComfort  
Time TempWeatherWind HumidityBarometerVisibility
11:00 PM
Dec 18
70 °FPassing clouds.13 mph73%30.07 "HgN/A
10:00 PM72 °FPartly cloudy.12 mph69%30.07 "HgN/A
9:00 PM72 °FPassing clouds.12 mph69%30.07 "HgN/A
8:00 PM72 °FPassing clouds.13 mph69%30.04 "HgN/A
7:00 PM72 °FPassing clouds.15 mph69%30.01 "HgN/A
6:00 PM73 °FPassing clouds.17 mph69%29.98 "HgN/A
5:00 PM75 °FPassing clouds.20 mph65%29.98 "HgN/A
4:00 PM75 °FScattered clouds.21 mph69%29.98 "HgN/A
3:00 PM77 °FPartly sunny.20 mph65%29.98 "HgN/A
2:00 PM79 °FPassing clouds.21 mph58%29.98 "HgN/A
1:00 PM77 °FScattered clouds.21 mph61%30.01 "HgN/A
12:00 PM77 °FScattered clouds.22 mph61%30.04 "HgN/A
11:00 AM75 °FScattered clouds.22 mph65%30.04 "HgN/A
10:00 AM73 °FScattered clouds.21 mph69%30.07 "HgN/A
9:00 AM72 °FScattered clouds.20 mph73%30.04 "HgN/A
8:00 AM70 °FScattered clouds.15 mph73%30.04 "HgN/A
7:00 AM68 °FScattered clouds.14 mph73%30.01 "HgN/A
6:00 AM66 °FScattered clouds.13 mph78%30.01 "HgN/A
5:00 AM68 °FScattered clouds.14 mph73%30.01 "HgN/A
3:00 AM68 °FPassing clouds.13 mph78%30.01 "HgN/A
2:00 AM68 °FPassing clouds.13 mph78%30.04 "HgN/A
1:00 AM70 °FPassing clouds.15 mph73%30.04 "HgN/A
12:00 AM70 °FPassing clouds.15 mph69%30.04 "HgN/A
Weather by CustomWeather, © 2014

See weather overviewHow to use our weather pages